User: anonymous   Login
Location: ????? ????
(37.9717°N, 23.4051°E)
Time: 07:32:07
(UTC+00:00)
Language:

ADEOS - Orbit

View from above orbital plane
View from above orbital plane
View from above satellite
View from above satellite

Ground track
Ground track

The orbit data is extracted from the following two-line orbital elements,

1 24277U 96046A   24165.15318374  .00000250  00000-0  11490-3 0  9992
2 24277  98.8972 195.9397 0002384  92.9900 267.1554 14.29934963450960
Epoch (UTC): 13 June 2024 03:40:35
Eccentricity: 0.0002384
inclination: 98.8972°
perigee height: 790 km
apogee height: 793 km
right ascension of ascending node: 195.9397°
argument of perigee: 92.9900°
revolutions per day: 14.29934963
mean anomaly at epoch: 267.1554°
orbit number at epoch: 45096

The dashed part of the orbit path shows where the satellite is in the earth's shadow,  

DLR